N2QKV-13 Weather Reports


time (UTC)temp
C
wind
direction
speed
KPH
gust
KPH
rain 1hr
cm
rain 24hr
cm
rain mn
cm
humidity
%
barometer
mb
20260504034003 10 186 0.0 3.2 0.00 0.00 0.00 52 1013.4
20260504033504 10 241 1.6 4.8 0.00 0.00 0.00 51 1013.3
20260504033004 10 248 1.6 4.8 0.00 0.00 0.00 51 1013.4
20260504032503 10 239 1.6 4.8 0.00 0.00 0.00 51 1013.3
20260504032004 10 213 0.0 1.6 0.00 0.00 0.00 51 1013.3
20260504031503 10 214 0.0 3.2 0.00 0.00 0.00 51 1013.3
20260504031003 10 208 0.0 8.0 0.00 0.00 0.00 51 1013.3
20260504030504 10 209 1.6 8.0 0.00 0.00 0.00 51 1013.2
20260504030003 10 211 0.0 4.8 0.00 0.00 0.00 51 1013.2
20260504025504 10 221 0.0 4.8 0.00 0.00 0.00 51 1013.2
20260504025003 10 233 0.0 9.7 0.00 0.00 0.00 51 1013.2
20260504024503 10 219 0.0 9.7 0.00 0.00 0.00 51 1013.2
20260504024003 10 205 0.0 1.6 0.00 0.00 0.00 52 1013.2
20260504023504 10 211 1.6 4.8 0.00 0.00 0.00 51 1013.2
20260504023003 10 255 1.6 3.2 0.00 0.00 0.00 52 1013.2
20260504022504 10 255 1.6 4.8 0.00 0.00 0.00 52 1013.2
20260504022003 10 203 1.6 8.0 0.00 0.00 0.00 52 1013.3
20260504021504 10 210 0.0 4.8 0.00 0.00 0.00 52 1013.2
20260504021003 10 202 0.0 3.2 0.00 0.00 0.00 52 1013.2
20260504020504 10 204 0.0 3.2 0.00 0.00 0.00 52 1013.2
20260504020004 10 205 0.0 3.2 0.00 0.00 0.00 53 1013.2
20260504015503 10 205 0.0 0.0 0.00 0.00 0.00 53 1013.2
20260504015004 10 205 0.0 0.0 0.00 0.00 0.00 53 1013.2
20260504014503 10 206 0.0 3.2 0.00 0.00 0.00 52 1013.2
20260504014003 10 207 1.6 4.8 0.00 0.00 0.00 51 1013.0
20260504013504 11 213 1.6 4.8 0.00 0.00 0.00 50 1013.1
20260504013003 11 245 0.0 1.6 0.00 0.00 0.00 49 1013.0
20260504012503 11 238 0.0 0.0 0.00 0.00 0.00 48 1012.9
20260504012004 11 237 0.0 0.0 0.00 0.00 0.00 48 1012.9
20260504011503 11 237 0.0 3.2 0.00 0.00 0.00 47 1012.8
20260504011004 11 243 0.0 1.6 0.00 0.00 0.00 47 1012.8
20260504010503 11 243 0.0 1.6 0.00 0.00 0.00 47 1012.7
20260504010003 11 243 1.6 4.8 0.00 0.00 0.00 46 1012.6
20260504005504 11 243 0.0 3.2 0.00 0.00 0.00 46 1012.6
20260504005004 11 243 0.0 0.0 0.00 0.00 0.00 46 1012.5
20260504004503 12 243 0.0 0.0 0.00 0.00 0.00 45 1012.5
20260504004004 12 243 0.0 0.0 0.00 0.00 0.00 44 1012.4
20260504003503 12 243 0.0 0.0 0.00 0.00 0.00 44 1012.3
20260504003004 12 243 0.0 1.6 0.00 0.00 0.00 43 1012.3
20260504002504 12 243 0.0 3.2 0.00 0.00 0.00 42 1012.3
20260504002004 12 243 0.0 1.6 0.00 0.00 0.00 41 1012.2
20260504001504 13 243 0.0 1.6 0.00 0.00 0.00 40 1012.2
20260504001003 13 243 0.0 1.6 0.00 0.00 0.00 39 1012.1
20260504000504 13 243 0.0 0.0 0.00 0.00 0.00 38 1012.0
20260504000004 13 243 1.6 3.2 0.00 0.00 0.00 37 1012.0
20260503235503 13 243 0.0 3.2 0.00 0.00 0.00 36 1011.9
20260503235003 13 243 0.0 3.2 0.00 0.00 0.00 36 1011.8
20260503234504 13 248 1.6 8.0 0.00 0.00 0.00 36 1011.7
20260503234003 14 250 3.2 4.8 0.00 0.00 0.00 36 1011.6
20260503233504 14 240 1.6 4.8 0.00 0.00 0.00 35 1011.6
20260503233003 14 213 3.2 8.0 0.00 0.00 0.00 34 1011.5
20260503232503 14 216 3.2 4.8 0.00 0.00 0.00 35 1011.7
20260503232004 14 238 4.8 9.7 0.00 0.00 0.00 34 1011.6
20260503231503 15 212 3.2 8.0 0.00 0.00 0.00 34 1011.6
20260503231004 15 234 4.8 11.3 0.00 0.00 0.00 33 1011.6
20260503230504 15 255 4.8 14.5 0.00 0.00 0.00 33 1011.5
20260503230003 15 237 4.8 11.3 0.00 0.00 0.00 32 1011.5
20260503225504 15 239 6.4 16.1 0.00 0.00 0.00 32 1011.5
20260503225004 15 252 3.2 11.3 0.00 0.00 0.00 32 1011.4
20260503224503 15 258 3.2 12.9 0.00 0.00 0.00 32 1011.4
20260503224004 15 276 4.8 19.3 0.00 0.00 0.00 31 1011.4
20260503223503 15 301 3.2 9.7 0.00 0.00 0.00 32 1011.4
20260503223004 15 259 3.2 11.3 0.00 0.00 0.00 32 1011.3
20260503222503 15 257 3.2 16.1 0.00 0.00 0.00 30 1011.4
20260503222003 15 285 6.4 19.3 0.00 0.00 0.00 31 1011.3
20260503221504 15 248 4.8 19.3 0.00 0.00 0.00 33 1011.3
20260503221003 15 283 8.0 22.5 0.00 0.00 0.00 31 1011.4
20260503220504 15 234 4.8 22.5 0.00 0.00 0.00 31 1011.5
20260503220004 16 266 6.4 20.9 0.00 0.00 0.00 31 1011.4
20260503215504 16 306 6.4 19.3 0.00 0.00 0.00 31 1011.3
20260503215003 16 212 3.2 11.3 0.00 0.00 0.00 33 1011.4
20260503214504 16 228 8.0 19.3 0.00 0.00 0.00 31 1011.2
20260503214004 16 225 8.0 20.9 0.00 0.00 0.00 30 1011.1
20260503213503 16 268 6.4 24.1 0.00 0.00 0.00 31 1011.3
20260503213004 15 300 8.0 19.3 0.00 0.00 0.00 31 1011.3
20260503212503 16 299 9.7 22.5 0.00 0.00 0.00 31 1011.2
20260503212004 16 205 6.4 20.9 0.00 0.00 0.00 31 1011.2
20260503211504 16 253 4.8 19.3 0.00 0.00 0.00 32 1011.2
20260503211003 16 276 6.4 22.5 0.00 0.00 0.00 32 1011.2
20260503210504 16 294 4.8 16.1 0.00 0.00 0.00 33 1011.2
20260503210003 16 256 6.4 19.3 0.00 0.00 0.00 33 1011.1
20260503205504 16 267 9.7 19.3 0.00 0.00 0.00 32 1011.2
20260503205004 16 289 4.8 20.9 0.00 0.00 0.00 31 1011.1
20260503204504 16 280 8.0 20.9 0.00 0.00 0.00 32 1011.0
20260503204004 16 284 8.0 22.5 0.00 0.00 0.00 31 1011.0
20260503203503 16 289 6.4 20.9 0.00 0.00 0.00 32 1011.0
20260503203003 16 279 9.7 19.3 0.00 0.00 0.00 32 1011.0
20260503202504 16 280 9.7 20.9 0.00 0.00 0.00 34 1011.0
20260503202003 16 255 6.4 14.5 0.00 0.00 0.00 32 1011.1
20260503201504 16 321 6.4 25.7 0.00 0.00 0.00 32 1011.1
20260503201003 16 289 4.8 19.3 0.00 0.00 0.00 33 1011.2
20260503200503 16 267 8.0 20.9 0.00 0.00 0.00 32 1011.2
20260503200003 16 274 8.0 20.9 0.00 0.00 0.00 32 1011.3
20260503195503 16 266 8.0 19.3 0.00 0.00 0.00 33 1011.2
20260503195004 15 285 8.0 19.3 0.00 0.00 0.00 35 1011.2
20260503194503 15 257 8.0 22.5 0.00 0.00 0.00 35 1011.3
20260503194004 15 218 11.3 32.2 0.00 0.00 0.00 34 1011.2
20260503193504 16 235 6.4 24.1 0.00 0.00 0.00 35 1011.3
20260503193003 15 286 4.8 16.1 0.00 0.00 0.00 37 1011.4
20260503192504 15 223 9.7 24.1 0.00 0.00 0.00 36 1011.6
20260503192004 15 256 4.8 16.1 0.00 0.00 0.00 36 1011.8
20260503191503 15 250 11.3 25.7 0.00 0.00 0.00 36 1011.8
20260503191004 15 252 8.0 24.1 0.00 0.00 0.00 36 1011.8
20260503190504 15 237 6.4 37.0 0.00 0.00 0.00 36 1011.8
20260503190004 15 283 11.3 29.0 0.00 0.00 0.00 37 1011.7
20260503185503 15 270 9.7 22.5 0.00 0.00 0.00 36 1011.9
20260503185004 15 232 9.7 19.3 0.00 0.00 0.00 38 1011.9
20260503184503 14 269 6.4 25.7 0.00 0.00 0.00 40 1011.9
20260503184004 15 267 8.0 25.7 0.00 0.00 0.00 36 1011.9
20260503183503 15 283 11.3 24.1 0.00 0.00 0.00 36 1012.0
20260503183004 14 250 9.7 19.3 0.00 0.00 0.00 40 1012.0
20260503182503 14 290 9.7 22.5 0.00 0.00 0.00 37 1012.1
20260503182004 13 244 9.7 22.5 0.00 0.00 0.00 39 1012.0
20260503181505 14 270 8.0 20.9 0.00 0.00 0.00 37 1012.0
20260503181004 14 223 11.3 25.7 0.00 0.00 0.00 40 1012.0
20260503180504 14 243 8.0 19.3 0.00 0.00 0.00 40 1011.9
20260503180004 14 303 11.3 24.1 0.00 0.00 0.00 39 1012.1
20260503175504 14 351 9.7 25.7 0.00 0.00 0.00 37 1011.9
20260503175003 15 275 4.8 14.5 0.00 0.00 0.00 39 1012.2
20260503174503 14 287 4.8 25.7 0.00 0.00 0.00 40 1012.2
20260503174004 13 262 6.4 19.3 0.00 0.00 0.00 40 1012.1
20260503173503 13 252 11.3 29.0 0.00 0.00 0.00 38 1012.1
20260503173004 13 269 12.9 25.7 0.00 0.00 0.00 38 1012.1
20260503172504 14 303 8.0 22.5 0.00 0.00 0.00 41 1012.1
20260503172004 14 266 6.4 20.9 0.00 0.00 0.00 39 1012.0
20260503171503 13 301 8.0 25.7 0.00 0.00 0.00 39 1012.0
20260503171003 13 284 8.0 16.1 0.00 0.00 0.00 41 1012.2
20260503170504 13 253 8.0 20.9 0.00 0.00 0.00 39 1012.2
20260503151003 13 291 3.2 16.1 0.00 0.00 0.00 47 1012.5
20260503150504 12 265 6.4 24.1 0.00 0.00 0.00 47 1012.4
20260503131004 11 316 4.8 12.9 0.00 0.00 0.00 51 1012.4
20260503130504 11 311 6.4 16.1 0.00 0.00 0.00 52 1012.3
20260503110503 8 242 1.6 8.0 0.00 0.00 0.00 57 1011.4
20260503090503 8 298 4.8 11.3 0.00 0.00 0.00 54 1009.9
20260503081503 8 319 4.8 12.9 0.00 0.00 0.00 55 1009.7
20260503081004 8 2 3.2 11.3 0.00 0.00 0.00 55 1009.7
20260503080503 8 320 3.2 8.0 0.00 0.00 0.00 56 1009.7
20260503072503 9 316 1.6 4.8 0.00 0.00 0.00 53 1009.9
20260503072004 10 310 1.6 4.8 0.00 0.00 0.00 53 1009.9
20260503071503 10 313 3.2 4.8 0.00 0.00 0.00 52 1009.8
20260503071004 10 317 3.2 8.0 0.00 0.00 0.00 52 1009.9
20260503070504 10 322 4.8 16.1 0.00 0.00 0.00 52 1009.9
20260503055003 10 358 1.6 4.8 0.00 0.00 0.00 54 1010.1
20260503054504 11 314 3.2 8.0 0.00 0.00 0.00 54 1010.1
20260503054004 11 296 1.6 11.3 0.00 0.00 0.00 53 1010.2
20260503053503 10 295 3.2 4.8 0.00 0.00 0.00 54 1010.1
20260503053004 10 328 3.2 12.9 0.00 0.00 0.00 55 1010.1
20260503052503 10 297 1.6 8.0 0.00 0.00 0.00 57 1010.1
20260503052004 10 341 3.2 4.8 0.00 0.00 0.00 56 1010.2
20260503051503 11 296 1.6 4.8 0.00 0.00 0.00 56 1010.2
20260503050504 10 321 3.2 4.8 0.00 0.00 0.00 56 1010.2
20260503050004 10 319 1.6 4.8 0.00 0.00 0.00 57 1010.4
20260503045503 10 331 3.2 8.0 0.00 0.00 0.00 58 1010.4
20260503045003 10 340 3.2 4.8 0.00 0.00 0.00 59 1010.4
20260503044504 10 300 1.6 4.8 0.00 0.00 0.00 60 1010.6
20260503044003 10 307 4.8 8.0 0.00 0.00 0.00 62 1010.7
20260503043504 10 300 1.6 4.8 0.00 0.00 0.00 63 1010.7
20260503043004 10 300 1.6 4.8 0.00 0.00 0.00 65 1010.8
20260503042503 10 300 1.6 4.8 0.00 0.00 0.00 66 1010.8
20260503042004 10 300 3.2 4.8 0.00 0.00 0.00 68 1010.8
20260503041504 10 281 0.0 1.6 0.00 0.00 0.00 67 1010.8
20260503041004 10 313 0.0 3.2 0.00 0.00 0.00 67 1010.8
20260503040503 10 313 0.0 3.2 0.00 0.00 0.00 67 1010.7
20260503040004 10 313 0.0 3.2 0.00 0.00 0.00 67 1010.7
20260503035503 10 313 1.6 4.8 0.00 0.00 0.00 67 1010.6
20260503035004 10 313 1.6 4.8 0.00 0.00 0.00 67 1010.5
20260503034503 10 313 1.6 3.2 0.00 0.00 0.00 67 1010.9